TimeEST,TemperatureF,Dew PointF,Humidity,Sea Level PressureIn,VisibilityMPH,Wind Direction,Wind SpeedMPH,Gust SpeedMPH,PrecipitationIn,Events,Conditions,WindDirDegrees,DateUTC
12:53 AM,3.9,-4.0,70,30.22,10.0,Calm,Calm,-,N/A,,Clear,0,2014-01-29 05:53:00
1:53 AM,3.0,-5.1,69,30.19,10.0,Calm,Calm,-,N/A,,Partly Cloudy,0,2014-01-29 06:53:00
2:53 AM,3.9,-4.0,70,30.18,10.0,Calm,Calm,-,N/A,,Mostly Cloudy,0,2014-01-29 07:53:00
3:53 AM,3.9,-2.9,73,30.16,10.0,Calm,Calm,-,N/A,,Overcast,0,2014-01-29 08:53:00
4:53 AM,3.9,-4.0,70,30.16,10.0,Calm,Calm,-,N/A,,Partly Cloudy,0,2014-01-29 09:53:00
5:53 AM,-0.9,-6.0,79,30.14,10.0,Calm,Calm,-,N/A,,Clear,0,2014-01-29 10:53:00
6:53 AM,-2.9,-9.9,72,30.13,10.0,Calm,Calm,-,N/A,,Clear,0,2014-01-29 11:53:00
7:53 AM,-4.0,-9.9,76,30.13,10.0,Calm,Calm,-,N/A,,Clear,0,2014-01-29 12:53:00
8:53 AM,1.9,-5.1,72,30.12,10.0,Calm,Calm,-,N/A,,Clear,0,2014-01-29 13:53:00
9:53 AM,8.1,-2.9,61,30.10,10.0,Calm,Calm,-,N/A,,Clear,0,2014-01-29 14:53:00
10:53 AM,12.9,-11.0,34,30.07,10.0,SW,8.1,-,N/A,,Clear,220,2014-01-29 15:53:00
11:53 AM,16.0,-9.0,32,30.01,10.0,SSW,10.4,18.4,N/A,,Clear,200,2014-01-29 16:53:00
12:53 PM,19.0,-9.0,29,29.96,10.0,SW,16.1,-,N/A,,Clear,220,2014-01-29 17:53:00
1:53 PM,21.0,-11.9,23,29.94,10.0,SW,17.3,28.8,N/A,,Clear,230,2014-01-29 18:53:00
2:53 PM,19.9,-11.9,24,29.95,10.0,SW,13.8,23.0,N/A,,Clear,220,2014-01-29 19:53:00
3:15 PM,19.9,-11.0,25,29.91,10.0,West,16.1,-,N/A,,Clear,260,2014-01-29 20:15:00
3:53 PM,18.0,-11.0,27,29.99,10.0,West,15.0,-,N/A,,Clear,260,2014-01-29 20:53:00
4:53 PM,17.1,-11.0,28,30.01,10.0,SW,12.7,-,N/A,,Clear,220,2014-01-29 21:53:00
5:53 PM,15.1,-11.0,31,30.06,10.0,SW,8.1,-,N/A,,Clear,230,2014-01-29 22:53:00
6:53 PM,15.1,-9.9,32,30.09,10.0,SSW,5.8,-,N/A,,Clear,200,2014-01-29 23:53:00
7:53 PM,12.0,-8.0,41,30.12,10.0,South,3.5,-,N/A,,Clear,170,2014-01-30 00:53:00
8:53 PM,6.1,-5.1,60,30.14,10.0,SSE,4.6,-,N/A,,Partly Cloudy,160,2014-01-30 01:53:00
9:53 PM,8.1,-5.1,55,30.17,10.0,South,6.9,-,N/A,,Scattered Clouds,190,2014-01-30 02:53:00
10:53 PM,8.1,-4.0,58,30.19,10.0,South,8.1,-,N/A,,Clear,170,2014-01-30 03:53:00
11:53 PM,6.1,-2.9,67,30.22,10.0,South,4.6,-,N/A,,Clear,190,2014-01-30 04:53:00